| time (UTC) | temp F | wind direction | speed MPH | gust MPH | rain 1hr in | rain 24hr in | rain mn in | humidity % | barometer mb |
| 20260504035120 | 45 | 317 | 0.0 | 0.0 | 0.00 | 0.00 | 0.00 | 78 | 1013.3 |
| 20260504032120 | 45 | 317 | 0.0 | 0.0 | 0.00 | 0.00 | 0.00 | 78 | 1013.1 |
| 20260504025121 | 44 | 314 | 0.0 | 0.0 | 0.00 | 0.00 | 0.00 | 78 | 1012.9 |
| 20260504022121 | 43 | 314 | 0.0 | 0.0 | 0.00 | 0.00 | 0.00 | 71 | 1012.7 |
| 20260504015120 | 45 | 314 | 0.0 | 0.0 | 0.00 | 0.00 | 0.00 | 67 | 1012.6 |
| 20260504012121 | 48 | 314 | 0.0 | 0.0 | 0.00 | 0.00 | 0.00 | 67 | 1012.1 |
| 20260504005120 | 51 | 314 | 0.0 | 0.0 | 0.00 | 0.00 | 0.00 | 58 | 1012.1 |
| 20260504002120 | 55 | 314 | 0.0 | 0.0 | 0.00 | 0.00 | 0.00 | 48 | 1011.9 |
| 20260503235120 | 60 | 314 | 0.0 | 0.0 | 0.00 | 0.00 | 0.00 | 37 | 1011.8 |
| 20260503232120 | 63 | 314 | 0.0 | 5.0 | 0.00 | 0.00 | 0.00 | 32 | 1011.9 |
| 20260503225121 | 63 | 313 | 0.0 | 6.0 | 0.00 | 0.00 | 0.00 | 29 | 1011.7 |
| 20260503222120 | 63 | 280 | 2.0 | 8.0 | 0.00 | 0.00 | 0.00 | 28 | 1011.4 |
| 20260503215120 | 64 | 267 | 0.0 | 9.0 | 0.00 | 0.00 | 0.00 | 24 | 1011.7 |
| 20260503212120 | 65 | 286 | 5.0 | 11.0 | 0.00 | 0.00 | 0.00 | 29 | 1011.9 |
| 20260503205120 | 63 | 13 | 0.0 | 13.0 | 0.00 | 0.00 | 0.00 | 25 | 1012.0 |
| 20260503202120 | 63 | 288 | 5.0 | 15.0 | 0.00 | 0.00 | 0.00 | 28 | 1012.5 |
| 20260503195120 | 63 | 17 | 4.0 | 11.0 | 0.00 | 0.00 | 0.00 | 28 | 1012.8 |
| 20260503192121 | 61 | 274 | 4.0 | 13.0 | 0.00 | 0.00 | 0.00 | 30 | 1013.2 |
| 20260503185120 | 61 | 181 | 2.0 | 14.0 | 0.00 | 0.00 | 0.00 | 34 | 1013.7 |
| 20260503175120 | 59 | 184 | 7.0 | 20.0 | 0.00 | 0.00 | 0.00 | 36 | 1014.2 |
| 20260503072120 | 44 | 349 | 0.0 | 0.0 | 0.00 | 0.00 | 0.00 | 65 | 1012.7 |
| 20260503055120 | 43 | 319 | 0.0 | 0.0 | 0.00 | 0.00 | 0.00 | 69 | 1012.3 |
| 20260503052120 | 44 | 319 | 0.0 | 0.0 | 0.00 | 0.00 | 0.00 | 65 | 1012.2 |
| 20260503045120 | 46 | 315 | 0.0 | 0.0 | 0.00 | 0.00 | 0.00 | 62 | 1012.2 |